Weather History for Sturgis, MI

Change the Weather History Date:

Sunday, September 15, 2013

  Actual Average (KHAI) Record (KHAI)
Temperature  
Mean Temperature 55 °F -  
Max Temperature 62 °F 75 °F 88 °F (1955)
Min Temperature 48 °F 50 °F 35 °F (1953)
Degree Days  
Heating Degree Days 10    
Growing Degree Days 5 (Base 50)    
Moisture  
Dew Point 48 °F    
Average Humidity 79    
Maximum Humidity 100    
Minimum Humidity 59    
Precipitation  
Precipitation 0.00 in - - ()
Sea Level Pressure  
Sea Level Pressure 30.09 in    
Wind  
Wind Speed 2 mph (East)    
Max Wind Speed 10 mph    
Max Gust Speed 9 mph    
Visibility 9 miles    
Events Rain    
Averages and records for this station are not official NWS values.
T = Trace of Precipitation, MM = Missing Value Source: NWS Daily Summary

Daily Weather History Graph

Daily Weather History Graph

Search for Another Location

Airport:

Trip Planner

Search our weather history database for the weather conditions in past years. The results will help you decide how hot, cold, wet, or windy it might be!

Date:

Astronomy

Sep. 15, 2013 Rise Set
Actual Time 7:22 AM EDT 7:50 PM EDT
Civil Twilight 6:54 AM EDT 8:18 PM EDT
Nautical Twilight 6:21 AM EDT 8:51 PM EDT
Astronomical Twilight 5:47 AM EDT 9:25 PM EDT
Moon 5:20 PM EDT (9/15) 2:56 AM EDT (9/15)
Length of Visible Light 13h 24m
Length of Day
12h 28m
Waxing Gibbous, 82% of the Moon is Illuminated
Sep 15
Waxing Gibbous
Sep 19
Full
Sep 26
Last Quarter
Oct 4
New
Oct 11
First Quarter

Hourly Weather History & Observations

Time (EDT) Temp. Dew Point Humidity Pressure Visibility Wind Dir Wind Speed Gust Speed Precip Events Conditions
12:15 AM 50.0 °F 39.2 °F 66% 30.08 in 10.0 mi Calm Calm - N/A   Clear
12:35 AM 48.2 °F 39.2 °F 71% 30.08 in 10.0 mi Calm Calm - N/A   Clear
12:54 AM 51.8 °F 39.2 °F 62% 30.08 in 10.0 mi Calm Calm - N/A   Clear
1:15 AM 48.2 °F 39.2 °F 71% 30.08 in 10.0 mi Calm Calm - N/A   Clear
1:35 AM 50.0 °F 39.2 °F 66% 30.08 in 10.0 mi Calm Calm - N/A   Clear
1:54 AM 48.2 °F 41.0 °F 76% 30.08 in 10.0 mi Calm Calm - N/A   Clear
2:15 AM 48.2 °F 41.0 °F 76% 30.08 in 10.0 mi Calm Calm - N/A   Clear
2:35 AM 48.2 °F 41.0 °F 76% 30.08 in 10.0 mi Calm Calm - N/A   Clear
2:54 AM 51.8 °F 41.0 °F 67% 30.08 in 10.0 mi Calm Calm - N/A   Clear
3:15 AM 50.0 °F 41.0 °F 71% 30.08 in 10.0 mi Calm Calm - N/A   Clear
3:35 AM 48.2 °F 42.8 °F 82% 30.08 in 10.0 mi Calm Calm - N/A   Clear
3:54 AM 51.8 °F 42.8 °F 71% 30.08 in 10.0 mi Calm Calm - N/A   Clear
4:15 AM 50.0 °F 42.8 °F 76% 30.08 in 10.0 mi Calm Calm - N/A   Clear
4:35 AM 50.0 °F 42.8 °F 76% 30.08 in 10.0 mi Calm Calm - N/A   Clear
4:54 AM 48.2 °F 41.0 °F 76% 30.09 in 10.0 mi Calm Calm - N/A   Clear
5:15 AM 50.0 °F 41.0 °F 71% 30.09 in 10.0 mi Calm Calm - N/A   Clear
5:35 AM 50.0 °F 42.8 °F 76% 30.10 in 10.0 mi Calm Calm - N/A   Clear
5:55 AM 51.8 °F 42.8 °F 71% 30.10 in 10.0 mi Calm Calm - N/A   Clear
6:15 AM 50.0 °F 42.8 °F 76% 30.10 in 10.0 mi Calm Calm - N/A   Clear
6:35 AM 51.8 °F 42.8 °F 71% 30.10 in 10.0 mi Calm Calm - N/A   Clear
6:54 AM 51.8 °F 42.8 °F 71% 30.11 in 10.0 mi Calm Calm - N/A   Clear
7:15 AM 51.8 °F 44.6 °F 76% 30.11 in 10.0 mi Calm Calm - N/A   Clear
7:35 AM 51.8 °F 44.6 °F 76% 30.11 in 10.0 mi Calm Calm - N/A   Clear
7:54 AM 51.8 °F 44.6 °F 76% 30.10 in 10.0 mi Calm Calm - N/A   Clear
8:15 AM 53.6 °F 44.6 °F 72% 30.11 in 10.0 mi South 3.5 mph - N/A   Clear
8:35 AM 53.6 °F 44.6 °F 72% 30.11 in 10.0 mi Calm Calm - N/A   Clear
8:54 AM 53.6 °F 44.6 °F 72% 30.10 in 10.0 mi Calm Calm - N/A   Clear
9:15 AM 55.4 °F 44.6 °F 67% 30.10 in 10.0 mi South 4.6 mph - N/A   Clear
9:34 AM 57.2 °F 46.4 °F 67% 30.10 in 10.0 mi South 5.8 mph - N/A   Clear
9:55 AM 59.0 °F 46.4 °F 63% 30.10 in 10.0 mi SW 6.9 mph - N/A   Clear
10:15 AM 60.8 °F 46.4 °F 59% 30.09 in 10.0 mi SSW 10.4 mph - N/A   Clear
10:34 AM 60.8 °F 46.4 °F 59% 30.07 in 10.0 mi SSW 9.2 mph - N/A   Clear
10:55 AM 60.8 °F 46.4 °F 59% 30.08 in 10.0 mi SSW 6.9 mph - N/A   Clear
11:15 AM 60.8 °F 48.2 °F 63% 30.08 in 10.0 mi SW 9.2 mph - N/A Rain Light Rain
11:35 AM 60.8 °F 48.2 °F 63% 30.09 in 10.0 mi SW 9.2 mph - N/A   Mostly Cloudy
11:55 AM 62.6 °F 50.0 °F 63% 30.08 in 10.0 mi SW 6.9 mph - N/A Rain Light Rain
12:15 PM 62.6 °F 50.0 °F 63% 30.08 in 10.0 mi SW 4.6 mph - N/A Rain Light Rain
12:34 PM 62.6 °F 50.0 °F 63% 30.08 in 10.0 mi SW 8.1 mph - N/A Rain Light Rain
12:55 PM 62.6 °F 51.8 °F 68% 30.08 in 10.0 mi West 4.6 mph - N/A Rain Light Rain
1:15 PM 62.6 °F 51.8 °F 68% 30.07 in 10.0 mi Calm Calm - N/A Rain Light Rain
1:34 PM 60.8 °F 53.6 °F 77% 30.07 in 10.0 mi Calm Calm - N/A   Mostly Cloudy
1:55 PM 60.8 °F 53.6 °F 77% 30.07 in 10.0 mi Calm Calm - N/A   Overcast
2:14 PM 62.6 °F 51.8 °F 68% 30.07 in 10.0 mi Calm Calm - N/A Rain Light Rain
2:35 PM 60.8 °F 53.6 °F 77% 30.08 in 10.0 mi Calm Calm - N/A   Mostly Cloudy
2:55 PM 60.8 °F 53.6 °F 77% 30.06 in 7.0 mi Calm Calm - N/A Rain Light Rain
3:14 PM 62.6 °F 51.8 °F 68% 30.05 in 10.0 mi Calm Calm - N/A Rain Light Rain
3:35 PM 62.6 °F 53.6 °F 72% 30.04 in 10.0 mi Calm Calm - N/A   Light Drizzle
3:55 PM 62.6 °F 55.4 °F 77% 30.05 in 10.0 mi Calm Calm - N/A Rain Light Rain
4:14 PM 60.8 °F 55.4 °F 82% 30.05 in 10.0 mi NNE 3.5 mph - N/A   Drizzle
4:35 PM 60.8 °F 55.4 °F 82% 30.06 in 10.0 mi North 4.6 mph - N/A Rain Light Rain
4:55 PM 59.0 °F 53.6 °F 82% 30.07 in 10.0 mi North 9.2 mph - N/A   Drizzle
5:14 PM 57.2 °F 55.4 °F 94% 30.08 in 10.0 mi NNE 8.1 mph - N/A Rain Light Rain
5:35 PM 57.2 °F 55.4 °F 94% 30.09 in 10.0 mi NNE 5.8 mph 9.2 mph N/A Rain Light Rain
5:55 PM 55.4 °F 53.6 °F 94% 30.08 in 10.0 mi NE 8.1 mph - N/A   Light Drizzle
6:14 PM 55.4 °F 53.6 °F 94% 30.07 in 10.0 mi ENE 6.9 mph - N/A   Overcast
6:35 PM 55.4 °F 53.6 °F 94% 30.07 in 10.0 mi ENE 5.8 mph - N/A Rain Light Rain
6:54 PM 55.4 °F 53.6 °F 94% 30.08 in 10.0 mi East 5.8 mph - N/A Rain Light Rain
7:14 PM 55.4 °F 53.6 °F 94% 30.08 in 10.0 mi ENE 5.8 mph - N/A Rain Light Rain
7:35 PM 55.4 °F 53.6 °F 94% 30.09 in 10.0 mi ENE 5.8 mph - N/A Rain Light Rain
7:54 PM 53.6 °F 53.6 °F 100% 30.09 in 10.0 mi ENE 6.9 mph - N/A Rain Light Rain
8:14 PM 53.6 °F 53.6 °F 100% 30.10 in 4.0 mi ENE 8.1 mph - N/A Rain Rain
8:35 PM 53.6 °F 53.6 °F 100% 30.10 in 5.0 mi ENE 8.1 mph - N/A Rain Rain
8:55 PM 53.6 °F 53.6 °F 100% 30.10 in 7.0 mi ENE 4.6 mph - N/A   Light Drizzle
9:15 PM 53.6 °F 53.6 °F 100% 30.11 in 7.0 mi East 3.5 mph - N/A   Overcast
9:35 PM 53.6 °F 53.6 °F 100% 30.11 in 7.0 mi ENE 3.5 mph - N/A   Overcast
9:54 PM 53.6 °F 53.6 °F 100% 30.12 in 7.0 mi East 3.5 mph - N/A Rain Light Rain
10:15 PM 53.6 °F 53.6 °F 100% 30.12 in 7.0 mi Calm Calm - N/A   Overcast
10:34 PM 53.6 °F 53.6 °F 100% 30.12 in 7.0 mi Calm Calm - N/A   Overcast
10:55 PM 53.6 °F 53.6 °F 100% 30.12 in 7.0 mi Calm Calm - N/A   Overcast
11:15 PM 53.6 °F 53.6 °F 100% 30.13 in 7.0 mi Calm Calm - N/A   Overcast
11:34 PM 53.6 °F 53.6 °F 100% 30.13 in 7.0 mi Calm Calm - N/A   Overcast
11:55 PM 53.6 °F 53.6 °F 100% 30.14 in 7.0 mi Calm Calm - N/A   Overcast